Starlink 35621

operational
NORAD ID: 66156 Int'l Des: 2025-240 Owner: SPXS Country: US Constellation: starlink
LEOCIRCULAR

Starlink 35621について

説明を読み込み中...

リアルタイム位置

3D地球を読み込み中...

次回通過

高度履歴

Altitude vs Time

uPlot chart will show altitude changes over time

軌道要素

1 66156C 25240M 25298.74354167 .00625530 00000+0 10186-2 0 2980
2 66156 53.1579 338.8104 0009107 269.0771 329.7633 16.01901263 15
Epoch: Oct 25, 2025 • Age: 150 hours

現在のステータス

高度 256.2 km
速度 7.76 km/s
衛星直下点 -43.92°S, 141.44°E
打ち上げ日 Oct 25, 2025
運用期間 5 days
タイプ internet

技術仕様

分類 Payload
質量 575.00 kg
乾燥質量 530.00 kg
総質量 575.00 kg
長さ 0.30 m
直径 4.10 m
スパン 29.00 m
形状 Box + pan
製造者 SPXS
バスタイプ Starlink V2MO
フェーズステータス In Orbit
所有者/国 SPXS/US

大規模コンステレーション

Loading constellations...